C/2024 PN7 ( PanSTARRS )

Japanese version
Home page
Updated on January 10, 2025

---------------------------------------------------------------------

* Profile

Discovery Date August 15, 2024
Magnitude 20.0 mag
Discoverer Pan-STARRS 2 telescope (Haleakala)

* Orbital Elements

Epoch 2024 Nov. 26.0 TT = JDT 2460640.5                                         
T 2024 Dec. 6.44070 TT                                  Veres                   
q   1.5245067            (2000.0)            P               Q                  
z  +0.0148673      Peri.   74.27438     +0.26631677     -0.96357981             
 +/-0.0000127      Node   358.58188     -0.55337287     -0.13222411             
e   0.9773347      Incl.  101.21002     +0.78921090     +0.23244513             
From 232 observations 2024 Aug. 15-Nov. 27, mean residual 0".5.                 

* Magnitudes Graph

        m1 = 15.0 + 5 log d + 10.0 log r

---------------------------------------------------------------------

The orbital elements are published on M.P.E.C. 2025-A145.
The magnitudes graphs are made with Comet for Windows.

---------------------------------------------------------------------

Copyright(C) Seiichi Yoshida (comet@aerith.net). All rights reserved.